Simultaneous Nadir Overpasses (SNOs) Predictions

Prediction of SNOs between METOP-A and NOAA-19 Satellite Orbit:

Table of predicted SNOs for the next 14.0 days since TLE Epoch: 9/14/2013
Index Date (METOP-A) Time (METOP-A) Lat,Lon (METOP-A) SZA (METOP-A ) Date (NOAA-19) Time (NOAA-19) Lat,Lon (NOAA-19) SZA (NOAA-19 ) Distance(km) Time Diff (sec)
1 09/17/2013 03:25:50 -74.01, -56.98 108.26 09/17/2013 03:24:40 -74.05, -58.95 108.16 60.57 70
2 09/17/2013 04:16:39 73.58, 109.32 71.35 09/17/2013 04:15:39 73.58, 109.42 71.35 3.10 60
3 09/17/2013 05:07:20 -73.60, -83.31 108.62 09/17/2013 05:06:35 -73.59, -83.35 108.62 1.40 45
4 09/17/2013 05:58:01 73.56, 83.94 71.36 09/17/2013 05:57:43 73.56, 83.95 71.36 0.29 18
5 09/17/2013 06:48:43 -73.53,-108.80 108.66 09/17/2013 06:48:38 -73.52,-108.70 108.67 3.14 5
6 09/17/2013 07:39:23 73.54, 58.56 71.37 09/17/2013 07:39:47 73.54, 58.47 71.37 2.64 24
7 09/17/2013 08:30:05 -73.51,-134.19 108.65 09/17/2013 08:30:42 -73.51,-134.18 108.66 0.39 37
8 09/17/2013 09:20:46 73.47, 33.06 71.33 09/17/2013 09:21:50 73.47, 33.12 71.32 1.75 64
9 09/17/2013 10:11:30 -73.34,-159.91 108.78 09/17/2013 10:12:43 -73.34,-159.31 108.81 19.03 73
10 09/27/2013 05:51:05 73.64, 85.86 75.30 09/27/2013 05:49:55 73.62, 85.84 75.28 2.90 70
11 09/27/2013 06:41:47 -73.62,-106.85 104.71 09/27/2013 06:40:51 -73.60,-106.86 104.73 2.67 56
12 09/27/2013 07:32:28 73.57, 60.36 75.26 09/27/2013 07:31:59 73.60, 60.36 75.29 3.01 29
13 09/27/2013 08:23:10 -73.55,-132.35 104.75 09/27/2013 08:22:55 -73.58,-132.33 104.72 3.11 15
14 09/27/2013 09:13:50 73.55, 34.98 75.27 09/27/2013 09:14:02 73.53, 35.00 75.25 2.34 12
15 09/27/2013 10:04:32 -73.53,-157.74 104.74 09/27/2013 10:04:58 -73.51,-157.69 104.76 2.66 26
16 09/27/2013 10:55:12 73.53, 9.59 75.28 09/27/2013 10:56:06 73.51, 9.52 75.26 2.95 54
17 09/27/2013 11:45:54 -73.51, 176.88 104.73 09/27/2013 11:47:02 -73.50, 176.83 104.75 2.51 68




NCC Satellite Simultaneous Nadir Overpasses (SNOs) Prediction Service
